CAPE
3018 2589 2270 1996 2446 2537 2851 1821 1766 2769 1996 1303 1185 2452 2184 1529 1337 2295 1867 2294 2326 2186 2292 1993 1612 2264 2085 1965 2101 2545 2334 2313 2114 1684 2932 3685 3515 2601 2327 2583 2845 3157 3304 3110 2831 2622 2554 2600 2644 2842 3091 2846 2674 2459 2446 2413 2399 2423 2478 2370 2059 1869 1772 1724 1658 1566 1413 793 378 349 691 1222 1321 1447
3648 2894 2964 2464 2248 2834 2140 2062 1577 2477 3050 2158 1779 2759 2732 2448 2157 2635 1494 1921 2494 2443 2535 2534 2146 1630 2050 2325 2500 2562 2249 2653 2012 1808 2442 2511 2446 2986 2511 2524 2684 2684 2805 2773 2674 2459 2409 2427 2501 2763 3000 2798 2774 2578 2446 2351 2366 2402 2452 2496 2488 2300 1992 1765 1688 1637 1578 1498 1099 617 320 451 1078 1274
3235 3102 2868 3662 3193 2924 2285 2278 2642 2986 1913 1368 1696 2711 2558 3112 2241 2018 1866 1801 3010 2765 2632 2637 2287 2211 2333 2354 2169 2033 2201 1978 2100 2025 2551 2322 2157 2361 2323 2300 2420 2504 2340 2278 2330 2302 2260 2187 2214 2297 2375 2458 2431 2460 2444 2326 2299 2218 2243 2300 2398 2474 2405 2128 1796 1645 1580 1564 1547 1360 884 438 328 584
2900 3254 2591 3421 2742 2527 3351 3242 2815 2341 2426 1859 2419 2757 2972 2765 3391 3000 2807 2181 2167 2929 2943 2686 2666 2700 2576 2197 2258 2050 2535 2050 2288 3063 1849 1892 2311 2049 1891 1936 1888 1951 1930 1947 2077 2256 2355 2188 2180 2206 2236 2252 2252 2260 2368 2472 2376 2288 2170 2155 2158 2216 2334 2410 2270 1979 1711 1555 1510 1503 1454 1140 692 362
3577 3559 3455 3186 3048 3013 3003 2808 2671 2524 2356 3228 2758 2120 2129 2295 2558 2612 3106 2416 2934 3092 4070 3218 3100 3115 2641 2392 2450 2488 2344 2029 2321 2247 2178 2416 1939 1420 1224 1289 1142 1365 1561 1720 1834 2070 2335 2346 2172 2105 2074 2084 2114 2163 2184 2188 2211 2132 2096 2074 2074 2088 2126 2216 2327 2315 2080 1784 1587 1478 1454 1435 1355 951
3372 3306 3344 3659 3446 3604 2845 2810 2705 2540 2344 2052 1873 1974 2634 2452 2484 4114 2630 4121 3287 2914 3377 3399 3140 3033 3463 2848 2616 2786 2251 2058 2486 2323 1415 1551 1379 1095 1217 1397 1042 1996 2296 2114 1994 2032 2263 2396 2188 1981 1875 1830 1907 1962 1975 1977 1968 1896 1882 1894 1924 1947 1971 2050 2127 2225 2295 2188 1869 1576 1447 1368 1384 1336
3880 3830 3545 3705 3394 3075 2947 2930 2640 2504 2669 2677 2182 2338 2739 2154 2297 2539 4231 3675 3122 3337 3344 3502 3350 3115 3228 2975 2593 2527 2411 2408 2514 1821 1281 1632 1342 1286 1317 1391 929 2439 2241 2193 2235 2199 2266 2337 2164 1812 1617 1520 1445 1529 1632 1714 1775 1767 1752 1726 1705 1731 1790 1849 1921 2012 2075 2175 2156 1998 1715 1432 1291 1242
3194 3461 3404 3062 2832 2768 2431 2896 3509 2846 2872 2608 2846 2477 2688 3017 3215 3234 4036 4285 3764 4138 3572 3322 3322 3234 3124 2977 2876 2902 2842 2421 1994 1591 1900 1887 1093 1000 1691 1243 782 1060 1203 1392 1954 2132 2105 2018 1932 1757 1428 1028 1464 1562 1507 1508 1338 1435 1467 1481 1530 1539 1556 1592 1673 1732 1828 1940 2025 2097 1982 1765 1517 1286
3209 3081 2978 2968 2907 2558 2448 2743 3130 3018 2664 3403 3111 3123 3159 2153 2725 3420 3398 2981 3027 3297 3213 3053 3184 3129 3236 3327 3196 2902 2648 1875 1541 1884 1712 1199 1256 1398 2139 1572 1123 1245 1135 953 1144 1412 1641 1814 1885 1827 1772 1873 2051 2045 1978 2003 1952 1785 1462 1222 1136 1249 1318 1358 1378 1433 1552 1632 1738 1833 1943 1967 1820 1570
3179 2974 3185 3030 3274 2892 2627 2551 2841 3360 2922 2930 2914 2416 3481 2936 3563 3535 3027 3322 3738 3580 3229 3038 2802 2686 2772 2454 1768 1335 1449 1575 1300 1066 972 1115 1654 2025 1803 1699 1978 1634 1603 1698 1804 1856 1938 2160 2256 2096 2036 2094 2210 2132 2138 2184 2162 2026 1744 1464 1216 1142 1084 1069 1145 1178 1202 1249 1365 1449 1580 1733 1873 1820
2714 2707 2623 2651 2482 2390 2469 2343 2777 2366 2601 2501 2340 2812 3471 2956 3595 3558 2990 3327 3174 3023 2924 2603 2667 2410 2258 1688 1594 1588 1791 1842 1842 2493 2505 2531 2776 2991 2943 2855 2752 2560 2405 2351 2402 2470 2462 2342 2000 2115 2183 2202 2194 2120 2093 2245 2167 1966 1734 1538 1333 1211 1200 1064 802 954 1103 1114 949 1042 1163 1272 1419 1627
2249 2212 2212 2250 2196 2199 2338 2468 2199 2484 2619 3204 2829 3146 4151 3703 3728 3367 3551 3566 3536 3358 3128 2702 2504 2269 2069 2078 2025 2029 1981 2324 2494 2794 2922 2816 2987 3151 3158 3114 2981 2807 2688 2827 2670 2292 2222 1997 2001 2228 2452 2460 2313 2398 2306 2236 2157 1940 1643 1470 1386 1270 1211 1244 953 1151 1287 1387 1335 971 784 863 979 1069
1950 2067 2026 1684 1526 1207 4663 4083 4109 3192 3219 3787 3618 4502 3841 3907 3830 3448 3504 3474 2942 2985 3252 3072 2746 2372 1743 1674 2006 1798 2281 2629 2578 2644 2902 2761 2926 3152 3136 3027 2995 3013 3079 2862 2480 2193 1976 1953 2271 2792 2872 2730 2567 2454 2324 2275 2016 1508 1411 1261 1196 1218 1004 1288 1141 1252 1402 1484 1421 1208 860 608 651 719
1361 1234 1176 1533 2331 2294 2520 2596 4421 3484 3190 3266 2668 2879 2194 2560 2951 3219 2841 2147 2485 2479 1886 1661 1907 2094 2150 2046 2233 2156 2705 2644 2376 2698 2844 2603 2790 3031 2871 2537 2894 3358 3208 2614 2316 2097 1801 1986 2385 2920 2999 2836 2648 2506 2334 1875 1664 1879 1748 1446 1210 961 992 1026 1192 1351 1452 1524 1459 1277 981 743 379 87
1890 1520 1502 1315 2693 2806 3687 3049 4730 4452 4129 3326 2815 3113 3529 3280 2081 1711 1332 1835 2222 1721 1509 1906 2324 2326 2045 2057 2356 2805 2800 2757 2433 2856 2825 2512 2662 2576 2384 2192 2130 3701 2583 2315 2102 1886 1883 2056 2652 2983 2977 2769 2568 2300 1922 1944 1720 1754 1817 1733 1448 1080 1120 1302 1436 1443 1492 1470 1573 1537 1091 784 415 0
1889 1702 1495 1447 1514 2612 4284 3624 3468 5160 4172 3343 2707 2398 2425 3147 3041 2666 1738 1435 1618 1831 1812 1990 1780 1944 1855 2190 2181 3111 2770 2571 2216 2369 2273 2201 2238 2233 2198 2142 2065 1990 2091 2159 2144 2117 2070 2271 2817 2948 2597 2346 2122 2027 2090 1902 1794 1834 1851 1738 1571 1336 1325 1459 1469 1453 1502 1481 1653 1773 1580 1218 911 406
1527 1445 1799 1976 2804 2435 3307 2539 3013 3738 4470 3276 3184 3388 4482 4550 3866 2762 2557 2307 1880 1522 1525 1344 1455 1543 1714 1694 1937 3380 2810 2376 2050 2010 1892 1991 2224 2329 2280 2172 2029 2262 2351 2370 2250 2139 2175 2390 2658 1980 2066 1994 1906 1944 2013 1886 2001 1904 1858 1752 1721 1585 1514 1498 1519 1517 1456 1535 1711 1881 1941 1925 1835 1750
1065 1357 1494 2090 2768 1704 1687 2297 2901 3167 3749 4020 3637 3155 3084 3145 4184 4228 3592 3270 2834 2601 2354 2070 1864 1745 1790 1891 2120 3283 2542 1941 1776 1727 1769 1950 2101 2096 2070 2021 2262 2440 2427 2223 2142 2271 2193 2164 2026 2038 1954 1901 1807 1847 1837 1701 2075 2063 1925 1936 1908 1775 1669 1676 1688 1700 1685 1741 1833 1854 1955 2022 2051 2028
1223 1410 1689 2085 2358 1464 1470 1710 2326 2998 3047 3191 3671 3804 3785 3668 3628 3820 3835 2954 2176 1945 1683 1545 1790 1889 1944 2204 2634 1862 1691 1732 1756 1832 1835 2049 2180 2066 2181 2294 2385 2268 2037 1995 2344 2228 1912 2113 1874 1752 1708 1737 1768 1695 1585 1652 2005 1817 2054 2108 1992 1983 1982 1910 1851 1807 1702 1659 1674 1711 1815 1893 2006 2104
1689 1616 2109 2421 1671 1421 1485 1666 1937 2299 2557 2806 2990 2780 2731 2637 2518 2598 3094 2042 2196 2659 2018 1629 1647 1513 1607 1689 1704 1696 1635 1363 1272 1632 1814 1625 2007 2260 2125 1919 1936 1950 1913 1964 2220 2002 1564 1937 1713 1604 1614 1658 1616 1552 1488 1571 1960 2079 1952 1666 1667 1775 1955 2093 2061 2003 1927 1825 1731 1703 1727 1780 1842 1900
1920 1737 1580 1654 1488 1686 1762 1943 2171 2411 2475 2399 2462 2457 2357 2238 2321 2168 2218 1903 1859 1721 1584 1506 1391 1247 1098 1014 925 730 824 975 878 1008 1370 1800 2207 2220 1896 1734 1699 1709 1637 2091 1741 1442 1359 1619 1604 1589 1552 1467 1479 1551 1554 1681 1786 1458 1314 1683 2018 2075 2043 2014 2031 2018 2004 1973 1913 1862 1779 1811 1751 1713
2032 2383 2330 1682 1671 1761 1743 1725 1697 1876 2124 2233 2238 2136 1858 1364 1415 1649 1757 1856 1808 1709 1464 1281 871 526 424 375 120 52 0 0 45 681 1532 1780 2332 2141 1786 1481 1505 1458 1457 1932 2032 1357 1495 1542 1528 1409 1320 1307 1461 1492 1480 1612 1491 1279 1750 1824 1735 1812 1586 1595 1827 2036 2103 2111 2105 2145 2220 2097 1853 1676
1072 1237 1363 1592 1647 1698 1704 1674 1628 1580 1506 1439 1398 1356 1259 1116 924 1015 1181 1356 1436 1330 858 491 379 372 309 271 74 222 420 1093 1441 1493 1557 1858 2228 2037 1593 1480 1374 1123 1218 1292 1318 1360 1444 1376 1375 1213 1259 1321 1370 1435 1495 1538 1306 1245 1510 1530 1363 1389 1494 1589 1745 1942 2021 2132 2238 2225 2354 2467 2178 1827
1022 1029 1299 1496 1610 1509 1416 1306 1206 1141 1082 1015 960 879 794 728 692 631 678 651 491 446 384 310 286 279 260 193 449 1360 2151 2035 1829 1569 1806 2201 2239 2136 1870 1672 1509 1354 1302 1235 1000 735 1011 1343 1098 1173 1410 1447 1564 1432 1362 1155 1147 1246 1404 1082 1154 1384 1261 1019 1080 1430 1935 2280 2390 2412 2639 2567 1877 1539
1062 999 1142 1219 1191 1212 1208 1204 1233 1154 974 796 721 649 558 494 456 405 392 337 309 279 246 560 523 259 215 394 400 598 864 590 506 449 932 1388 1542 1373 1185 1239 1546 1501 1292 439 410 435 431 515 930 1440 1627 1445 1451 1210 1052 972 992 1158 1121 981 1066 1046 651 474 653 1132 1542 1978 2394 2932 2469 1934 1567 1468
1106 1122 1136 1039 987 1070 1110 1086 967 853 765 697 630 610 572 535 495 438 371 322 291 374 697 606 504 212 289 457 273 296 295 300 302 321 469 410 145 106 304 723 603 172 221 147 18 13 26 402 1385 1681 1598 1323 1062 996 811 680 746 803 659 705 620 210 82 226 499 631 764 1536 3052 2373 2166 1990 1791 1530
1170 1173 1141 1096 1027 935 885 833 775 701 606 514 434 383 345 319 299 263 225 206 234 530 570 532 396 256 552 237 206 189 439 328 241 297 458 290 95 117 106 80 2 2 5 0 1 0 74 1231 1475 1594 1227 1334 1269 919 665 366 234 189 82 78 14 0 4 12 7 71 490 2584 2760 2570 2308 2083 1826 1530
1048 1044 1001 915 792 719 666 609 572 509 439 374 347 324 299 276 274 279 257 216 455 418 634 480 352 306 305 167 90 75 370 517 322 315 356 137 79 0 0 0 0 0 5 0 0 0 52 1 6 274 647 1038 788 395 150 128 113 36 13 1 0 0 0 0 0 186 1050 2490 1972 2297 2382 2020 1696 1280
554 614 862 823 676 550 468 396 356 343 348 363 338 293 283 248 217 182 142 110 235 207 195 186 186 82 69 50 35 32 158 386 121 43 18 1 0 0 0 0 0 0 2 0 0 0 0 0 0 1 1 6 2 6 4 2 0 0 0 0 0 0 0 0 15 199 249 226 197 122 470 485 192 70
337 296 353 517 509 448 390 360 320 336 353 295 220 175 164 147 104 0 35 201 67 229 10 0 0 9 0 0 12 0 0 11 0 0 0 0 0 0 0 0 0 0 0 0 0 0 0 0 0 0 0 0 0 0 0 0 0 0 0 0 0 0 0 0 2 0 0 0 0 0 0 0 0 0
346 383 360 374 353 326 323 311 237 230 188 178 115 66 0 0 0 3 31 326 403 23 4 0 0 0 0 0 0 0 0 0 0 0 0 0 0 0 0 0 0 0 0 0 0 0 0 0 0 0 0 0 0 0 0 0 0 0 0 0 0 0 0 0 0 0 0 0 0 0 0 0 0 0
192 239 289 306 260 202 195 194 180 188 157 120 77 42 12 0 21 123 390 461 50 41 11 0 0 0 0 0 0 0 0 0 0 0 0 0 0 0 0 0 0 0 0 0 0 0 0 0 0 0 0 0 0 0 0 0 0 0 0 0 0 0 0 0 0 0 0 0 0 0 0 0 0 0
135 125 0 4 33 48 26 2 0 1 5 63 50 24 22 32 14 0 4 26 0 0 0 0 0 0 0 0 0 0 0 0 0 0 0 0 0 0 0 0 0 0 0 0 0 0 0 0 0 0 0 0 0 0 0 0 0 0 0 0 0 0 0 0 0 0 0 0 0 0 0 0 0 0
54 54 37 0 2 30 0 0 0 0 0 0 0 0 18 13 0 0 57 39 0 0 0 0 0 0 0 0 0 0 0 0 0 0 0 0 0 0 0 0 0 0 0 0 0 0 0 0 0 0 0 0 0 0 0 0 0 0 0 0 0 0 0 0 0 0 0 0 0 0 0 0 0 0
0 0 0 0 0 0 0 0 0 0 0 0 0 0 0 0 0 0 0 12 5 0 0 0 0 0 0 0 0 0 0 0 0 0 0 0 0 0 0 0 0 0 0 0 0 0 0 0 0 0 0 0 0 0 0 0 0 0 0 0 0 0 0 0 0 0 0 0 0 0 0 0 0 0
0 0 0 0 0 0 0 0 0 0 0 0 0 0 0 0 0 0 0 0 0 0 0 0 0 0 0 0 0 0 0 0 0 0 0 0 0 0 0 0 0 0 0 0 0 0 0 0 0 0 0 0 0 0 0 0 0 0 0 0 0 0 0 0 0 0 0 0 0 0 0 0 0 0
0 0 0 0 0 0 0 0 0 0 0 0 0 0 0 0 0 0 0 0 0 0 0 0 0 0 0 0 0 0 0 0 0 0 0 0 0 0 0 0 0 0 0 0 0 0 0 0 0 0 0 0 0 0 0 0 0 0 0 0 0 0 0 0 0 0 0 0 0 0 0 0 0 0
0 0 0 0 0 0 0 0 0 0 0 0 0 0 0 0 0 0 0 0 0 0 0 0 0 0 0 0 0 0 0 0 0 0 0 0 0 0 0 0 0 0 0 0 0 0 0 0 0 0 0 0 0 0 0 0 0 0 0 0 0 0 0 0 0 0 0 0 0 0 0 0 0 0
0 0 0 0 0 0 0 0 0 0 0 0 0 0 0 0 0 0 0 0 0 0 0 0 0 0 0 0 0 0 0 0 0 0 0 0 0 0 0 0 0 0 0 0 0 0 0 0 0 0 0 0 0 0 0 0 0 0 0 0 0 0 0 0 0 0 0 0 0 0 0 0 0 0
0 0 0 0 0 0 0 0 0 0 0 0 0 0 0 0 0 0 0 0 0 0 0 0 0 0 0 0 0 0 0 0 0 0 0 0 0 0 0 0 0 0 0 0 0 0 0 0 0 0 0 0 0 0 0 0 0 0 0 0 0 0 0 0 0 0 0 0 0 0 0 0 0 0
0 0 0 0 0 0 0 0 0 0 0 0 0 0 0 0 0 0 0 0 0 0 0 0 0 0 0 0 0 0 0 0 0 0 0 0 0 0 0 0 0 0 0 0 0 0 0 0 0 1 0 0 0 0 0 0 0 0 0 0 0 0 0 0 0 0 0 0 0 0 0 0 0 0
0 0 0 0 0 0 0 0 0 0 0 0 0 0 0 0 0 0 0 0 0 0 0 0 0 0 0 0 0 0 0 0 0 0 0 0 0 0 0 0 0 0 0 0 0 0 0 0 0 0 0 0 0 0 0 0 0 0 0 0 0 0 0 0 0 0 0 0 0 0 0 0 0 0
0 0 0 0 0 0 0 0 0 0 0 0 0 0 0 0 0 0 0 0 0 0 0 0 0 0 0 0 0 0 0 0 0 0 0 0 0 0 0 0 0 0 0 0 0 0 0 0 0 0 0 0 1 0 0 0 1 2 0 0 0 0 0 0 0 0 0 0 0 2 1 0 0 0
0 0 0 0 0 0 0 0 0 0 0 0 0 0 0 0 0 0 0 0 0 0 0 0 0 0 0 0 0 0 0 0 0 0 0 0 0 0 0 0 0 0 0 0 0 0 0 0 0 0 0 0 0 0 3 5 2 3 2 1 1 0 0 0 0 0 0 0 0 0 0 0 0 0
0 0 0 0 0 0 0 0 0 0 0 0 0 0 0 0 0 0 0 0 0 0 0 0 0 0 0 0 0 0 0 0 0 0 0 0 0 0 0 0 0 0 0 0 0 0 0 2 2 2 1 2 3 6 8 6 6 7 6 3 1 0 0 0 0 0 0 0 0 0 0 0 0 0
Wind_Speed
4 3 4 2 3 6 6 5 1 1 2 3 3 5 7 7 4 4 3 6 5 5 3 5 5 4 5 5 5 6 8 10 11 8 8 10 12 16 19 18 19 19 20 21 22 22 21 20 19 19 19 20 20 21 22 22 21 21 21 20 19 17 16 15 15 16 16 16 15 16 19 19 19 19
3 2 3 4 3 3 3 4 2 1 2 2 2 6 7 8 7 7 6 5 5 4 3 4 3 1 1 4 5 7 9 10 9 5 4 9 10 13 16 17 19 19 20 22 23 22 21 20 19 20 20 19 19 20 21 22 22 21 21 21 21 19 17 16 15 15 16 16 15 15 15 16 17 18
2 2 2 1 1 2 2 3 2 1 1 1 2 4 4 5 7 8 7 4 2 4 2 2 2 1 2 2 3 2 2 4 5 5 6 6 9 10 10 14 17 18 19 21 22 21 20 20 18 18 18 17 18 18 19 21 22 22 21 21 21 20 19 18 17 15 15 15 15 15 14 14 15 15
1 1 2 1 1 1 2 3 3 0 1 2 4 6 8 7 6 6 6 4 4 3 4 4 4 4 2 2 1 2 2 2 3 6 6 6 9 7 7 7 13 17 18 19 20 19 19 19 17 16 17 16 16 17 18 19 21 21 21 21 21 21 20 20 19 17 16 15 15 15 15 15 14 14
1 1 2 3 3 3 2 2 2 2 1 4 7 6 7 6 5 6 4 2 3 3 3 3 4 5 2 2 1 1 2 3 4 4 5 5 5 5 5 4 2 5 12 17 19 17 18 19 17 14 15 15 15 15 16 17 19 20 20 20 20 20 20 20 20 19 18 16 15 15 15 14 14 14
2 2 2 3 3 2 2 1 1 1 4 5 6 5 7 4 4 4 3 2 2 3 2 1 3 2 1 1 2 1 3 4 3 3 3 3 3 2 3 1 2 1 5 12 16 16 17 18 16 13 13 14 14 14 14 15 17 18 19 19 19 19 20 20 20 20 20 18 17 16 15 14 14 13
3 3 3 3 3 3 3 3 2 4 6 7 6 6 5 5 5 3 4 3 2 1 1 2 1 1 2 2 2 3 4 5 5 3 3 3 2 3 3 4 4 3 5 9 12 15 16 16 15 14 13 12 12 13 13 14 15 16 16 17 17 18 19 19 20 20 19 19 18 17 16 15 14 14
3 3 4 3 3 3 3 5 6 4 6 6 6 7 6 7 3 3 5 4 4 3 3 2 3 3 2 2 3 4 3 3 3 3 3 2 3 3 3 6 7 4 3 7 10 13 13 13 13 12 11 11 10 10 11 13 14 13 13 14 15 16 17 18 18 19 19 18 18 18 18 17 16 15
5 4 5 4 4 5 5 6 6 6 7 8 8 8 9 7 5 4 6 5 5 4 3 2 3 3 5 6 5 5 4 2 3 3 3 3 2 2 3 4 6 6 6 10 11 12 12 9 8 10 12 12 11 8 9 12 13 12 11 12 13 14 15 16 16 17 17 17 17 17 17 17 16 16
6 5 6 6 8 7 8 8 8 8 8 8 8 8 8 6 7 6 4 4 5 5 4 5 2 5 5 6 6 7 7 6 5 3 2 4 4 3 2 3 4 5 6 7 7 6 6 8 9 10 10 11 10 9 9 11 12 12 10 11 11 12 12 13 14 15 15 16 16 16 16 15 15 15
7 7 7 8 8 7 8 8 10 9 8 8 7 8 9 7 8 8 6 7 8 8 8 7 8 7 6 8 5 5 8 9 12 10 7 7 8 8 7 3 4 5 5 4 2 1 5 7 6 7 9 10 10 10 10 10 10 9 10 11 11 11 11 12 12 13 13 14 14 15 15 15 15 14
8 7 9 9 9 8 9 11 10 11 10 10 9 9 11 11 11 10 10 11 11 10 10 10 9 9 8 6 8 8 11 13 11 12 14 11 9 8 9 10 5 6 6 5 3 2 4 4 2 1 6 9 10 10 8 8 8 9 10 11 11 11 12 12 12 12 12 12 13 14 14 15 15 15
11 12 15 11 14 9 9 14 14 14 13 14 14 13 15 15 15 14 13 14 14 12 12 10 10 10 9 9 10 10 12 14 11 10 13 12 12 11 10 7 7 8 8 8 5 2 2 3 2 2 2 3 5 8 10 8 6 7 9 11 12 11 11 11 12 12 12 12 13 13 14 14 15 15
10 17 17 15 7 8 7 10 14 17 17 16 17 17 17 16 16 15 15 15 14 15 14 12 12 12 10 10 11 11 11 11 11 13 13 12 10 12 11 11 12 6 8 8 6 4 5 6 5 4 3 2 4 6 9 13 10 6 7 12 14 13 12 12 12 12 11 11 11 12 12 13 13 nan
24 18 14 12 16 21 18 15 10 14 16 19 20 20 19 19 18 18 17 15 16 15 14 14 14 13 11 10 11 11 11 12 12 11 12 11 12 12 12 10 10 12 8 8 10 7 7 11 9 7 6 5 4 5 8 12 13 12 9 10 15 17 16 15 14 14 12 11 10 10 11 12 12 nan
22 22 17 17 21 20 22 20 18 17 18 19 19 19 19 19 18 19 19 17 16 16 15 14 12 12 11 11 11 10 12 10 10 10 10 10 11 11 12 13 13 11 10 10 11 10 10 13 12 11 9 9 8 7 8 10 13 12 10 9 12 16 17 17 16 15 14 13 12 11 11 11 12 13
25 22 22 23 23 24 26 25 21 20 19 19 19 21 20 19 18 18 16 16 17 17 16 14 11 12 12 11 11 13 12 13 10 10 10 10 11 12 12 12 14 10 10 11 12 13 11 14 15 14 12 12 12 9 9 8 10 11 10 9 11 13 16 16 16 16 16 16 15 15 14 14 13 13
26 24 23 24 25 24 25 24 26 24 24 21 21 21 20 19 16 15 15 16 16 17 16 16 14 14 16 14 14 13 15 14 12 12 11 12 12 13 13 13 12 10 10 11 13 14 13 15 17 15 13 14 14 12 9 7 11 11 10 10 11 12 14 16 17 17 16 16 17 17 17 17 16 16
27 26 25 26 27 27 27 28 26 27 25 23 24 23 21 19 17 17 18 19 19 20 18 18 17 15 15 16 16 16 15 14 14 16 15 15 15 14 15 16 16 13 14 13 15 15 13 15 17 16 15 16 15 14 11 9 14 12 14 14 13 12 12 14 15 15 15 15 16 17 18 18 18 18
30 32 32 32 33 31 30 30 30 28 24 23 25 26 24 23 22 21 21 24 24 24 23 22 21 20 18 16 15 15 15 15 17 19 19 19 18 19 19 18 18 18 15 15 18 17 14 15 16 16 17 18 17 15 16 14 15 18 19 17 15 12 12 12 13 12 12 13 14 15 16 17 19 20
32 34 35 36 36 36 33 32 31 30 29 29 29 27 26 26 26 27 25 27 28 27 24 20 17 16 13 12 12 11 11 16 21 23 23 20 21 23 20 19 20 18 17 18 20 19 15 15 16 16 18 19 18 18 19 19 20 18 16 15 15 15 13 13 13 13 13 13 13 14 14 17 20 21
37 37 43 40 37 37 35 33 34 35 34 33 31 30 30 28 30 27 25 25 26 26 25 23 21 18 17 15 15 nan nan nan nan 27 26 23 25 24 22 21 22 19 19 20 21 20 19 17 19 19 20 22 22 21 23 22 20 17 17 17 18 18 17 15 14 15 15 15 15 15 16 20 22 24
40 41 43 45 40 38 36 37 39 39 37 35 33 31 31 32 31 27 26 27 28 29 28 27 26 25 23 24 nan 21 18 32 33 32 29 27 26 25 21 21 22 23 23 21 23 23 21 21 20 21 21 24 24 26 25 23 21 20 21 21 20 19 20 19 17 16 16 17 17 17 20 24 27 25
41 41 42 44 43 41 39 39 41 41 40 37 35 34 34 33 31 30 29 29 30 29 29 27 27 26 26 27 28 30 35 35 34 33 30 28 27 25 23 21 23 24 24 23 25 24 21 23 20 22 23 23 24 25 25 23 23 22 24 23 22 20 21 19 19 16 17 18 18 19 24 26 29 26
40 39 41 42 41 41 40 41 42 41 40 40 39 38 36 34 32 31 31 31 31 30 29 29 29 29 30 31 33 34 35 36 35 34 32 32 32 29 26 24 24 24 25 24 24 26 24 22 21 24 25 25 24 24 25 24 23 24 25 24 22 22 21 19 20 20 20 18 20 25 26 27 29 27
40 39 40 40 39 40 41 41 42 40 40 39 38 37 36 36 34 33 32 30 30 29 30 29 30 31 30 31 34 36 36 35 34 34 33 34 33 31 30 28 27 27 25 23 nan nan nan 24 26 26 26 27 25 26 25 26 27 26 26 25 25 23 nan 20 21 20 20 21 26 27 25 27 27 26
32 35 39 40 41 37 39 41 40 39 39 37 36 34 34 32 32 32 33 32 31 30 30 30 32 31 31 33 36 35 35 34 33 34 34 34 nan 33 31 nan nan nan nan nan nan nan nan 25 27 29 27 28 27 27 28 27 27 28 nan nan nan nan nan nan nan nan 21 22 24 25 25 26 25 25
22 23 26 29 32 34 33 34 35 36 37 36 33 33 31 31 31 33 32 32 30 31 31 33 34 36 36 36 nan nan 34 34 35 36 36 37 nan nan nan nan nan nan nan nan nan nan nan nan nan 28 28 28 28 28 26 26 27 nan nan nan nan nan nan nan nan 22 21 23 25 27 28 27 26 28
18 16 14 16 22 29 32 33 35 35 34 33 32 31 32 33 35 32 32 30 32 31 35 38 39 nan nan nan nan nan 39 39 40 nan nan nan nan nan nan nan nan nan nan nan nan nan nan nan nan nan nan nan nan nan nan nan nan nan nan nan nan nan nan nan nan 27 29 30 29 29 29 29 28 nan
18 17 12 7 10 16 24 30 30 28 27 30 31 30 32 38 38 nan nan 34 nan 35 nan nan nan nan nan nan nan nan nan nan nan nan nan nan nan nan nan nan nan nan nan nan nan nan nan nan nan nan nan nan nan nan nan nan nan nan nan nan nan nan nan nan nan nan nan nan nan nan nan nan nan nan
20 18 17 14 10 9 9 14 16 15 16 19 22 nan nan nan nan nan nan 35 38 nan nan nan nan nan nan nan nan nan nan nan nan nan nan nan nan nan nan nan nan nan nan nan nan nan nan nan nan nan nan nan nan nan nan nan nan nan nan nan nan nan nan nan nan nan nan nan nan nan nan nan nan nan
21 20 18 18 18 18 20 20 21 20 19 19 nan nan nan nan nan 32 37 38 nan nan nan nan nan nan nan nan nan nan nan nan nan nan nan nan nan nan nan nan nan nan nan nan nan nan nan nan nan nan nan nan nan nan nan nan nan nan nan nan nan nan nan nan nan nan nan nan nan nan nan nan nan nan
22 23 nan nan nan nan nan nan nan nan nan nan nan nan nan nan nan nan nan nan nan nan nan nan nan nan nan nan nan nan nan nan nan nan nan nan nan nan nan nan nan nan nan nan nan nan nan nan nan nan nan nan nan nan nan nan nan nan nan nan nan nan nan nan nan nan nan nan nan nan nan nan nan nan
nan nan nan nan nan nan nan nan nan nan nan nan nan nan nan nan nan nan nan nan nan nan nan nan nan nan nan nan nan nan nan nan nan nan nan nan nan nan nan nan nan nan nan nan nan nan nan nan nan nan nan nan nan nan nan nan nan nan nan nan nan nan nan nan nan nan nan nan nan nan nan nan nan nan
nan nan nan nan nan nan nan nan nan nan nan nan nan nan nan nan nan nan nan nan nan nan nan nan nan nan nan nan nan nan nan nan nan nan nan nan nan nan nan nan nan nan nan nan nan nan nan nan nan nan nan nan nan nan nan nan nan nan nan nan nan nan nan nan nan nan nan nan nan nan nan nan nan nan
nan nan nan nan nan nan nan nan nan nan nan nan nan nan nan nan nan nan nan nan nan nan nan nan nan nan nan nan nan nan nan nan nan nan nan nan nan nan nan nan nan nan nan nan nan nan nan nan nan nan nan nan nan nan nan nan nan nan nan nan nan nan nan nan nan nan nan nan nan nan nan nan nan nan
nan nan nan nan nan nan nan nan nan nan nan nan nan nan nan nan nan nan nan nan nan nan nan nan nan nan nan nan nan nan nan nan nan nan nan nan nan nan nan nan nan nan nan nan nan nan nan nan nan nan nan nan nan nan nan nan nan nan nan nan nan nan nan nan nan nan nan nan nan nan nan nan nan nan
nan nan nan nan nan nan nan nan nan nan nan nan nan nan nan nan nan nan nan nan nan nan nan nan nan nan nan nan nan nan nan nan nan nan nan nan nan nan nan nan nan nan nan nan nan nan nan nan nan nan nan nan nan nan nan nan nan nan nan nan nan nan nan nan nan nan nan nan nan nan nan nan nan nan
nan nan nan nan nan nan nan nan nan nan nan nan nan nan nan nan nan nan nan nan nan nan nan nan nan nan nan nan nan nan nan nan nan nan nan nan nan nan nan nan nan nan nan nan nan nan nan nan nan nan nan nan nan nan nan nan nan nan nan nan nan nan nan nan nan nan nan nan nan nan nan nan nan nan
nan nan nan nan nan nan nan nan nan nan nan nan nan nan nan nan nan nan nan nan nan nan nan nan nan nan nan nan nan nan nan nan nan nan nan nan nan nan nan nan nan nan nan nan nan nan nan nan nan nan nan nan nan nan nan nan nan nan nan nan nan nan nan nan nan nan nan nan nan nan nan nan nan nan
nan nan nan nan nan nan nan nan nan nan nan nan nan nan nan nan nan nan nan nan nan nan nan nan nan nan nan nan nan nan nan nan nan nan nan nan nan nan nan nan nan nan nan nan nan nan nan nan nan nan nan nan nan nan nan nan nan nan nan nan nan nan nan nan nan nan nan nan nan nan nan nan nan nan
nan nan nan nan nan nan nan nan nan nan nan nan nan nan nan nan nan nan nan nan nan nan nan nan nan nan nan nan nan nan nan nan nan nan nan nan nan nan nan nan nan nan nan nan nan nan nan nan nan nan nan nan nan nan nan nan nan nan nan nan nan nan nan nan nan nan nan nan nan nan nan nan nan nan
nan nan nan nan nan nan nan nan nan nan nan nan nan nan nan nan nan nan nan nan nan nan nan nan nan nan nan nan nan nan nan nan nan nan nan nan nan nan nan nan nan nan nan nan nan nan nan nan nan nan nan nan nan nan nan nan nan nan nan nan nan nan nan nan nan nan nan nan nan nan nan nan nan nan
nan nan nan nan nan nan nan nan nan nan nan nan nan nan nan nan nan nan nan nan nan nan nan nan nan nan nan nan nan nan nan nan nan nan nan nan nan nan nan nan nan nan nan nan nan nan nan nan nan nan nan nan nan nan nan nan nan nan nan nan nan nan nan nan nan nan nan nan nan nan nan nan nan nan
nan nan nan nan nan nan nan nan nan nan nan nan nan nan nan nan nan nan nan nan nan nan nan nan nan nan nan nan nan nan nan nan nan nan nan nan nan nan nan nan nan nan nan nan nan nan nan nan nan nan nan nan nan nan nan nan nan nan nan nan nan nan nan nan nan nan nan nan nan nan nan nan nan nan
Wind_Direction
135 148 123 130 123 119 127 149 110 36 44 30 17 357 358 358 352 5 25 30 25 32 357 358 32 6 15 26 37 44 57 48 45 31 17 26 41 43 42 40 38 34 32 29 32 37 42 45 47 47 47 48 46 44 46 48 46 42 41 42 45 48 47 47 47 51 57 61 65 66 69 74 79 84
134 127 113 108 123 125 169 165 169 337 2 87 356 342 356 332 334 350 360 26 7 22 30 338 349 337 114 21 40 25 37 45 38 27 39 34 41 47 39 37 36 33 29 29 34 40 47 49 49 48 48 49 49 47 46 47 49 48 44 42 42 44 47 44 42 43 48 53 57 61 64 68 71 75
136 120 79 119 184 119 162 163 195 175 314 340 281 290 304 299 320 338 333 330 4 342 33 20 15 352 15 32 30 17 17 18 18 38 47 57 81 80 56 38 37 34 30 28 35 40 49 53 52 52 52 52 51 51 49 49 48 49 49 46 44 42 42 44 44 43 43 46 49 53 57 62 65 68
215 259 26 343 302 242 207 181 169 296 41 351 277 283 289 286 302 319 318 327 38 21 13 45 84 97 74 75 140 132 66 88 61 36 64 81 95 89 85 70 37 32 30 28 34 38 48 54 55 55 58 59 56 54 53 52 51 50 51 51 48 45 42 41 42 44 45 43 44 47 51 55 60 62
186 203 281 277 273 265 214 158 158 169 194 288 273 279 279 291 299 298 314 332 73 86 36 51 64 92 75 102 80 122 106 100 84 82 68 66 70 79 83 66 69 20 23 26 33 34 44 52 53 55 59 64 65 61 57 55 53 53 54 54 51 48 45 42 40 40 41 41 42 43 46 49 52 56
186 237 285 276 269 295 320 354 127 220 243 279 288 279 272 288 289 285 297 333 353 52 90 126 109 97 20 93 61 84 86 80 67 74 70 65 46 69 91 117 38 310 33 26 31 29 38 47 48 50 58 61 64 67 65 60 55 55 55 55 52 48 46 44 42 39 37 37 38 38 40 43 46 50
242 239 262 267 281 280 305 317 356 261 267 272 277 292 312 287 286 296 307 305 324 4 342 321 302 353 321 331 40 76 56 43 35 48 59 33 33 8 358 8 340 325 31 36 28 25 32 41 43 43 54 60 59 60 66 68 62 54 54 53 51 48 45 43 42 41 38 35 34 33 31 32 36 41
264 256 257 265 275 275 269 284 293 265 263 273 275 286 273 272 265 306 306 316 310 305 270 259 307 316 301 329 15 16 31 35 43 19 28 10 13 17 6 357 327 345 11 22 19 25 31 36 36 35 50 63 64 54 55 65 66 57 52 50 48 45 44 41 40 40 39 37 35 32 30 29 29 29
276 276 277 282 284 284 277 266 267 266 267 273 290 288 294 288 297 303 315 317 299 298 302 277 283 293 301 327 350 349 342 325 316 320 335 352 4 38 7 344 330 351 326 334 359 15 24 32 36 24 36 51 63 55 45 53 60 56 48 45 43 40 38 36 35 34 35 34 34 33 32 30 27 25
261 263 274 278 277 274 285 281 280 272 267 258 257 257 264 287 282 285 269 277 289 301 313 317 293 283 314 302 317 329 315 314 314 305 303 289 300 316 285 305 318 319 313 315 325 342 334 353 21 25 30 38 47 53 45 46 52 49 39 36 34 31 28 28 27 26 26 26 25 26 28 29 28 25
272 276 277 278 276 279 287 284 287 285 280 281 271 265 273 270 260 263 267 276 284 293 298 301 311 309 311 309 306 307 301 310 312 313 305 304 318 309 304 320 329 329 326 330 1 283 268 287 316 357 17 20 29 38 41 44 48 43 32 28 23 18 15 14 14 14 15 15 15 16 17 18 20 20
273 281 269 269 277 293 283 283 278 273 273 269 267 261 272 260 261 262 262 260 264 265 267 284 286 290 293 270 291 294 281 278 288 299 306 305 311 311 323 333 338 339 319 317 314 272 228 222 229 337 357 9 17 23 22 32 37 33 20 19 16 9 4 2 0 359 360 3 4 4 6 7 8 9
233 254 268 274 269 235 273 296 283 281 280 273 270 266 267 266 267 266 264 266 265 263 268 267 274 277 269 276 279 266 278 282 293 303 295 299 302 308 303 308 326 332 317 319 311 315 273 271 295 306 289 306 332 342 350 341 359 14 6 2 3 5 360 353 351 348 349 352 354 354 357 359 359 360
274 241 226 227 232 289 279 284 289 288 290 284 280 277 270 270 270 268 267 266 268 273 272 274 273 264 266 273 275 278 284 285 278 268 269 272 283 288 298 314 319 316 305 291 301 310 306 298 311 316 306 302 291 292 292 294 304 319 352 349 350 353 353 349 343 342 343 342 341 343 346 349 351 nan
252 257 248 241 244 246 243 244 243 289 278 275 274 277 278 279 276 274 271 272 273 272 272 274 268 272 270 273 276 280 279 277 276 284 279 279 280 280 280 281 296 316 305 309 305 308 311 308 317 317 318 315 288 267 270 257 246 248 267 321 338 343 346 344 340 341 340 335 330 330 332 335 339 nan
260 255 256 249 253 253 250 253 247 258 276 276 276 278 278 278 279 279 280 279 274 275 274 271 279 280 283 283 276 282 278 278 273 279 274 279 278 277 281 291 295 310 306 305 300 307 314 309 315 312 310 302 296 274 257 230 227 235 242 269 315 330 334 336 336 334 331 329 327 325 326 328 330 332
262 260 258 256 250 250 245 248 247 251 262 266 269 267 267 272 279 285 285 287 283 279 279 281 277 285 282 280 283 289 289 287 279 278 275 283 285 285 282 285 287 290 295 294 302 303 305 299 299 298 295 288 290 281 269 228 231 237 248 254 272 303 317 321 322 321 321 324 324 324 324 325 327 327
265 268 265 261 260 259 256 253 251 250 255 258 265 264 263 262 264 278 290 291 286 282 282 281 282 278 283 287 286 288 287 285 288 289 291 289 285 283 287 286 285 292 287 297 300 295 291 287 282 284 288 284 286 286 271 228 239 256 262 264 267 288 304 308 310 313 315 316 318 318 319 321 322 321
262 264 262 260 259 258 255 252 247 252 251 251 259 263 262 261 261 267 269 270 273 275 275 278 281 279 280 282 284 285 285 292 298 294 293 290 288 290 287 285 289 288 288 284 286 287 280 281 277 283 282 280 282 286 281 258 262 279 270 263 268 276 292 302 308 311 311 311 309 308 308 311 311 310
258 256 253 253 255 254 253 244 240 246 251 254 257 259 258 257 256 259 266 259 262 264 267 268 268 269 269 269 277 281 284 286 284 282 282 282 286 282 278 278 282 286 284 285 282 280 276 280 274 279 279 279 278 279 282 276 264 251 251 253 263 274 285 292 298 302 304 303 300 299 300 301 298 294
259 259 256 257 255 253 252 243 237 237 245 256 257 257 256 256 257 252 250 252 255 254 256 255 257 260 262 265 271 282 294 299 287 284 275 277 282 277 276 280 279 278 278 285 281 278 281 280 279 277 279 277 282 284 281 278 264 251 245 245 249 262 274 281 289 297 301 301 299 298 296 289 287 293
254 258 266 260 256 257 255 248 243 239 245 252 252 254 256 255 260 255 254 258 260 260 255 252 253 255 260 266 274 nan nan nan nan 285 284 286 281 278 278 278 281 279 279 286 282 277 287 281 282 281 284 282 288 287 281 278 275 263 266 255 255 258 262 269 281 289 292 293 294 294 292 288 289 286
257 253 255 259 258 256 256 253 250 246 249 254 252 251 253 256 260 259 256 257 256 256 256 259 258 260 259 264 nan 270 263 278 290 286 286 282 280 279 276 276 277 275 281 283 276 274 282 275 281 277 277 281 288 285 277 280 279 279 278 275 271 259 252 254 267 282 288 291 292 294 291 292 293 288
261 254 252 251 254 254 252 252 252 251 250 254 253 252 254 256 256 257 257 260 260 261 264 265 266 267 268 268 267 269 271 275 278 283 284 287 284 281 278 277 280 283 284 281 270 271 283 286 281 281 285 281 280 281 280 278 280 281 280 275 277 269 265 260 268 268 282 291 295 291 287 296 298 290
266 260 252 249 250 250 250 251 252 253 252 252 252 251 254 254 256 256 255 254 251 261 263 265 266 269 268 268 272 272 272 273 274 276 278 278 276 274 276 275 276 281 283 276 265 273 280 278 282 282 281 282 284 280 284 283 281 280 275 275 276 276 274 275 279 279 279 283 287 286 293 299 304 298
262 263 260 258 254 250 249 248 248 248 252 251 252 254 257 258 259 258 258 258 259 261 262 263 265 264 265 272 273 275 277 277 278 279 279 279 277 277 277 275 275 276 275 272 nan nan nan 277 280 276 280 277 280 280 278 281 285 278 274 274 273 271 nan 273 274 275 276 278 286 292 291 300 304 310
248 255 262 262 264 257 250 246 245 246 249 252 255 257 259 260 259 257 258 259 260 262 265 266 266 263 265 269 267 268 270 272 273 273 275 275 nan 274 274 nan nan nan nan nan nan nan nan 279 273 269 270 276 277 278 281 276 276 275 nan nan nan nan nan nan nan nan 272 281 284 286 286 290 300 304
243 246 255 260 259 257 255 250 249 246 247 251 253 258 259 258 257 258 259 260 264 267 270 270 267 264 264 266 nan nan 268 269 269 269 270 270 nan nan nan nan nan nan nan nan nan nan nan nan nan 272 269 268 269 269 268 278 279 nan nan nan nan nan nan nan nan 269 270 272 269 270 272 272 275 281
267 260 251 260 259 254 250 252 251 250 250 252 256 256 257 258 260 261 263 263 262 264 268 266 267 nan nan nan nan nan 267 267 265 nan nan nan nan nan nan nan nan nan nan nan nan nan nan nan nan nan nan nan nan nan nan nan nan nan nan nan nan nan nan nan nan 263 261 261 262 266 269 272 274 nan
262 259 263 267 261 250 253 252 254 256 259 261 261 262 263 263 262 nan nan 264 nan 267 nan nan nan nan nan nan nan nan nan nan nan nan nan nan nan nan nan nan nan nan nan nan nan nan nan nan nan nan nan nan nan nan nan nan nan nan nan nan nan nan nan nan nan nan nan nan nan nan nan nan nan nan
241 243 252 259 265 284 266 255 260 258 255 256 259 nan nan nan nan nan nan 268 269 nan nan nan nan nan nan nan nan nan nan nan nan nan nan nan nan nan nan nan nan nan nan nan nan nan nan nan nan nan nan nan nan nan nan nan nan nan nan nan nan nan nan nan nan nan nan nan nan nan nan nan nan nan
241 246 247 245 254 273 282 281 278 278 271 266 nan nan nan nan nan 264 270 266 nan nan nan nan nan nan nan nan nan nan nan nan nan nan nan nan nan nan nan nan nan nan nan nan nan nan nan nan nan nan nan nan nan nan nan nan nan nan nan nan nan nan nan nan nan nan nan nan nan nan nan nan nan nan
245 249 nan nan nan nan nan nan nan nan nan nan nan nan nan nan nan nan nan nan nan nan nan nan nan nan nan nan nan nan nan nan nan nan nan nan nan nan nan nan nan nan nan nan nan nan nan nan nan nan nan nan nan nan nan nan nan nan nan nan nan nan nan nan nan nan nan nan nan nan nan nan nan nan
nan nan nan nan nan nan nan nan nan nan nan nan nan nan nan nan nan nan nan nan nan nan nan nan nan nan nan nan nan nan nan nan nan nan nan nan nan nan nan nan nan nan nan nan nan nan nan nan nan nan nan nan nan nan nan nan nan nan nan nan nan nan nan nan nan nan nan nan nan nan nan nan nan nan
nan nan nan nan nan nan nan nan nan nan nan nan nan nan nan nan nan nan nan nan nan nan nan nan nan nan nan nan nan nan nan nan nan nan nan nan nan nan nan nan nan nan nan nan nan nan nan nan nan nan nan nan nan nan nan nan nan nan nan nan nan nan nan nan nan nan nan nan nan nan nan nan nan nan
nan nan nan nan nan nan nan nan nan nan nan nan nan nan nan nan nan nan nan nan nan nan nan nan nan nan nan nan nan nan nan nan nan nan nan nan nan nan nan nan nan nan nan nan nan nan nan nan nan nan nan nan nan nan nan nan nan nan nan nan nan nan nan nan nan nan nan nan nan nan nan nan nan nan
nan nan nan nan nan nan nan nan nan nan nan nan nan nan nan nan nan nan nan nan nan nan nan nan nan nan nan nan nan nan nan nan nan nan nan nan nan nan nan nan nan nan nan nan nan nan nan nan nan nan nan nan nan nan nan nan nan nan nan nan nan nan nan nan nan nan nan nan nan nan nan nan nan nan
nan nan nan nan nan nan nan nan nan nan nan nan nan nan nan nan nan nan nan nan nan nan nan nan nan nan nan nan nan nan nan nan nan nan nan nan nan nan nan nan nan nan nan nan nan nan nan nan nan nan nan nan nan nan nan nan nan nan nan nan nan nan nan nan nan nan nan nan nan nan nan nan nan nan
nan nan nan nan nan nan nan nan nan nan nan nan nan nan nan nan nan nan nan nan nan nan nan nan nan nan nan nan nan nan nan nan nan nan nan nan nan nan nan nan nan nan nan nan nan nan nan nan nan nan nan nan nan nan nan nan nan nan nan nan nan nan nan nan nan nan nan nan nan nan nan nan nan nan
nan nan nan nan nan nan nan nan nan nan nan nan nan nan nan nan nan nan nan nan nan nan nan nan nan nan nan nan nan nan nan nan nan nan nan nan nan nan nan nan nan nan nan nan nan nan nan nan nan nan nan nan nan nan nan nan nan nan nan nan nan nan nan nan nan nan nan nan nan nan nan nan nan nan
nan nan nan nan nan nan nan nan nan nan nan nan nan nan nan nan nan nan nan nan nan nan nan nan nan nan nan nan nan nan nan nan nan nan nan nan nan nan nan nan nan nan nan nan nan nan nan nan nan nan nan nan nan nan nan nan nan nan nan nan nan nan nan nan nan nan nan nan nan nan nan nan nan nan
nan nan nan nan nan nan nan nan nan nan nan nan nan nan nan nan nan nan nan nan nan nan nan nan nan nan nan nan nan nan nan nan nan nan nan nan nan nan nan nan nan nan nan nan nan nan nan nan nan nan nan nan nan nan nan nan nan nan nan nan nan nan nan nan nan nan nan nan nan nan nan nan nan nan
nan nan nan nan nan nan nan nan nan nan nan nan nan nan nan nan nan nan nan nan nan nan nan nan nan nan nan nan nan nan nan nan nan nan nan nan nan nan nan nan nan nan nan nan nan nan nan nan nan nan nan nan nan nan nan nan nan nan nan nan nan nan nan nan nan nan nan nan nan nan nan nan nan nan
nan nan nan nan nan nan nan nan nan nan nan nan nan nan nan nan nan nan nan nan nan nan nan nan nan nan nan nan nan nan nan nan nan nan nan nan nan nan nan nan nan nan nan nan nan nan nan nan nan nan nan nan nan nan nan nan nan nan nan nan nan nan nan nan nan nan nan nan nan nan nan nan nan nan
nan nan nan nan nan nan nan nan nan nan nan nan nan nan nan nan nan nan nan nan nan nan nan nan nan nan nan nan nan nan nan nan nan nan nan nan nan nan nan nan nan nan nan nan nan nan nan nan nan nan nan nan nan nan nan nan nan nan nan nan nan nan nan nan nan nan nan nan nan nan nan nan nan nan